SVA1431 OEMA-OEJN

Flight info

Callsign SVA1431
Flight time 0h 46m
Altitude 30000
Route SISUD B544 RBG/N0460F290 B544 NOMDA
Aircraft A321/M-SDE3FGHIRWY/LB1

Departure

Time 2026-04-21 19:55
Airport Prince Mohammad Bin Abdulaziz Airport (OEMA)

Arrival

Time 2026-04-21 20:41
Airport King Abdulaziz International Airport (OEJN)
Time Latitude Longitude Altitude Speed Heading
2026-04-21 19:25 24.54744 39.71418 2105 ft 0 kts 78°
2026-04-21 19:42 24.54742 39.71404 2105 ft 4 kts 78°
2026-04-21 19:43 24.54736 39.71375 2105 ft 4 kts 81°
2026-04-21 19:43 24.54734 39.71346 2108 ft 4 kts 82°
2026-04-21 19:43 24.54742 39.71335 2106 ft 4 kts 355°
2026-04-21 19:43 24.54726 39.71338 2107 ft 4 kts 350°
2026-04-21 19:44 24.54718 39.71339 2106 ft 0 kts 350°
2026-04-21 19:47 24.54720 39.71339 2106 ft 2 kts 350°
2026-04-21 19:47 24.54770 39.71329 2105 ft 12 kts 349°
2026-04-21 19:48 24.54794 39.71324 2105 ft 6 kts 349°
2026-04-21 19:48 24.54847 39.71290 2105 ft 9 kts 302°
2026-04-21 19:48 24.54844 39.71191 2106 ft 6 kts 259°
2026-04-21 19:48 24.54833 39.71162 2106 ft 0 kts 239°
2026-04-21 19:50 24.54821 39.71146 2106 ft 6 kts 225°
2026-04-21 19:50 24.54752 39.71137 2108 ft 15 kts 173°
2026-04-21 19:50 24.54618 39.71165 2107 ft 24 kts 169°
2026-04-21 19:51 24.54421 39.71208 2107 ft 33 kts 169°
2026-04-21 19:51 24.54214 39.71252 2107 ft 29 kts 168°
2026-04-21 19:51 24.53988 39.71302 2107 ft 28 kts 169°
2026-04-21 19:51 24.53917 39.71317 2107 ft 3 kts 169°
2026-04-21 19:52 24.53861 39.71320 2107 ft 12 kts 191°
2026-04-21 19:52 24.53834 39.71288 2108 ft 0 kts 249°
2026-04-21 19:53 24.53833 39.71285 2108 ft 2 kts 251°
2026-04-21 19:53 24.53823 39.71243 2110 ft 9 kts 258°
2026-04-21 19:53 24.53832 39.71153 2111 ft 16 kts 310°
2026-04-21 19:53 24.53966 39.71114 2111 ft 25 kts 349°
2026-04-21 19:54 24.54209 39.71061 2111 ft 55 kts 349°
2026-04-21 19:54 24.54807 39.70934 2113 ft 114 kts 348°
2026-04-21 19:54 24.55750 39.70733 2110 ft 159 kts 349°
2026-04-21 19:54 24.56920 39.70479 2155 ft 189 kts 349°
2026-04-21 19:55 24.58231 39.70213 2789 ft 186 kts 350°
2026-04-21 19:55 24.59489 39.69967 3445 ft 178 kts 349°
2026-04-21 19:55 24.60707 39.69709 3797 ft 184 kts 348°
2026-04-21 19:55 24.62025 39.69422 3899 ft 201 kts 348°
2026-04-21 19:56 24.63438 39.69114 4024 ft 213 kts 348°
2026-04-21 19:56 24.64936 39.68790 4171 ft 225 kts 348°
2026-04-21 19:56 24.66433 39.68165 4297 ft 240 kts 324°
2026-04-21 19:56 24.67469 39.66694 4677 ft 253 kts 292°
2026-04-21 19:57 24.67641 39.64725 4960 ft 270 kts 259°
2026-04-21 19:57 24.66862 39.62844 5472 ft 277 kts 231°
2026-04-21 19:57 24.65378 39.61541 6059 ft 280 kts 208°
2026-04-21 19:57 24.63613 39.60641 6722 ft 280 kts 204°
2026-04-21 19:58 24.61825 39.59792 7363 ft 280 kts 204°
2026-04-21 19:58 24.60044 39.58946 8022 ft 281 kts 204°
2026-04-21 19:58 24.58246 39.58098 8651 ft 281 kts 204°
2026-04-21 19:58 24.56440 39.57255 9264 ft 283 kts 204°
2026-04-21 19:59 24.54622 39.56415 9853 ft 284 kts 204°
2026-04-21 19:59 24.52745 39.55553 10179 ft 297 kts 204°
2026-04-21 19:59 24.50781 39.54654 10293 ft 314 kts 204°
2026-04-21 19:59 24.48716 39.53701 10408 ft 330 kts 204°
2026-04-21 20:00 24.46546 39.52705 10526 ft 345 kts 204°
2026-04-21 20:00 24.44287 39.51671 10702 ft 357 kts 204°
2026-04-21 20:00 24.41975 39.50619 11102 ft 361 kts 204°
2026-04-21 20:00 24.39643 39.49567 11559 ft 364 kts 204°
2026-04-21 20:01 24.37282 39.48512 12010 ft 367 kts 204°
2026-04-21 20:01 24.34903 39.47462 12482 ft 369 kts 204°
2026-04-21 20:01 24.32511 39.46425 12956 ft 371 kts 204°
2026-04-21 20:01 24.30096 39.45394 13390 ft 374 kts 204°
2026-04-21 20:02 24.28485 39.44714 13677 ft 376 kts 204°
2026-04-21 20:02 24.25200 39.43343 14211 ft 379 kts 204°
2026-04-21 20:02 24.22734 39.42320 14620 ft 380 kts 204°
2026-04-21 20:02 24.20253 39.41296 15014 ft 381 kts 204°
2026-04-21 20:03 24.17762 39.40278 15375 ft 383 kts 204°
2026-04-21 20:03 24.15261 39.39255 15701 ft 385 kts 204°
2026-04-21 20:03 24.12744 39.38234 16093 ft 386 kts 204°
2026-04-21 20:03 24.10226 39.37215 16444 ft 387 kts 204°
2026-04-21 20:04 24.07696 39.36197 16784 ft 388 kts 204°
2026-04-21 20:04 24.05157 39.35183 17106 ft 389 kts 204°
2026-04-21 20:04 24.02607 39.34175 17415 ft 391 kts 204°
2026-04-21 20:04 24.00034 39.33174 17684 ft 393 kts 204°
2026-04-21 20:05 23.97454 39.32160 17983 ft 394 kts 204°
2026-04-21 20:05 23.94839 39.31132 18287 ft 395 kts 204°
2026-04-21 20:05 23.92285 39.30123 18435 ft 396 kts 204°
2026-04-21 20:05 23.89659 39.29091 18693 ft 397 kts 204°
2026-04-21 20:06 23.87055 39.28072 18956 ft 398 kts 204°
2026-04-21 20:06 23.84439 39.27052 19220 ft 400 kts 204°
2026-04-21 20:06 23.82700 39.26376 19392 ft 401 kts 204°
2026-04-21 20:06 23.80065 39.25355 19676 ft 402 kts 204°
2026-04-21 20:07 23.77423 39.24334 19882 ft 404 kts 204°
2026-04-21 20:07 23.74774 39.23314 19927 ft 403 kts 204°
2026-04-21 20:07 23.72125 39.22318 19917 ft 404 kts 201°
2026-04-21 20:07 23.69310 39.21870 19908 ft 418 kts 186°
2026-04-21 20:08 23.66391 39.21929 19920 ft 419 kts 184°
2026-04-21 20:08 23.63491 39.21993 19910 ft 417 kts 184°
2026-04-21 20:08 23.60582 39.22056 19909 ft 417 kts 184°
2026-04-21 20:08 23.57680 39.22118 19912 ft 417 kts 184°
2026-04-21 20:09 23.54779 39.22182 19899 ft 417 kts 184°
2026-04-21 20:09 23.51843 39.22251 19900 ft 417 kts 184°
2026-04-21 20:09 23.48940 39.22320 19904 ft 417 kts 184°
2026-04-21 20:09 23.46039 39.22387 19902 ft 417 kts 184°
2026-04-21 20:10 23.43139 39.22454 19890 ft 417 kts 184°
2026-04-21 20:10 23.40240 39.22516 19891 ft 417 kts 184°
2026-04-21 20:10 23.37338 39.22577 19892 ft 417 kts 184°
2026-04-21 20:10 23.34436 39.22638 19879 ft 417 kts 184°
2026-04-21 20:11 23.31536 39.22701 19883 ft 417 kts 184°
2026-04-21 20:11 23.28632 39.22766 19876 ft 417 kts 184°
2026-04-21 20:11 23.25726 39.22829 19884 ft 417 kts 184°
2026-04-21 20:11 23.22826 39.22891 19875 ft 417 kts 184°
2026-04-21 20:12 23.19925 39.22952 19860 ft 417 kts 184°
2026-04-21 20:12 23.17020 39.23011 19880 ft 417 kts 184°
2026-04-21 20:12 23.14121 39.23067 19870 ft 417 kts 184°
2026-04-21 20:12 23.11216 39.23122 19867 ft 417 kts 184°
2026-04-21 20:13 23.08315 39.23178 19864 ft 417 kts 184°
2026-04-21 20:13 23.05413 39.23236 19868 ft 417 kts 184°
2026-04-21 20:13 23.02505 39.23295 19863 ft 417 kts 184°
2026-04-21 20:13 22.99564 39.23356 19866 ft 417 kts 184°
2026-04-21 20:14 22.96700 39.23415 19869 ft 417 kts 184°
2026-04-21 20:14 22.93760 39.23474 19852 ft 417 kts 184°
2026-04-21 20:14 22.90847 39.23529 19869 ft 419 kts 184°
2026-04-21 20:14 22.87938 39.23584 19864 ft 418 kts 184°
2026-04-21 20:15 22.85030 39.23640 19866 ft 418 kts 184°
2026-04-21 20:15 22.82123 39.23697 19780 ft 418 kts 184°
2026-04-21 20:15 22.79228 39.23752 19145 ft 415 kts 184°
2026-04-21 20:15 22.76357 39.23801 18470 ft 411 kts 184°
2026-04-21 20:16 22.73509 39.23841 17770 ft 407 kts 184°
2026-04-21 20:16 22.70687 39.23874 17051 ft 403 kts 184°
2026-04-21 20:16 22.67903 39.23906 16359 ft 399 kts 184°
2026-04-21 20:16 22.65142 39.23938 15699 ft 395 kts 184°
2026-04-21 20:17 22.62403 39.23969 15115 ft 391 kts 184°
2026-04-21 20:17 22.59688 39.23998 14899 ft 391 kts 184°
2026-04-21 20:17 22.56971 39.24028 14844 ft 390 kts 184°
2026-04-21 20:17 22.54259 39.24057 14858 ft 391 kts 184°
2026-04-21 20:18 22.52413 39.24077 14857 ft 391 kts 184°
2026-04-21 20:18 22.48814 39.24118 14857 ft 391 kts 184°
2026-04-21 20:18 22.46097 39.24149 14857 ft 391 kts 184°
2026-04-21 20:18 22.43338 39.24181 14845 ft 391 kts 184°
2026-04-21 20:19 22.40618 39.24220 14855 ft 391 kts 184°
2026-04-21 20:19 22.37903 39.24260 14850 ft 390 kts 184°
2026-04-21 20:19 22.35213 39.24303 14415 ft 385 kts 184°
2026-04-21 20:19 22.32544 39.24349 13814 ft 381 kts 184°
2026-04-21 20:20 22.29905 39.24396 13196 ft 378 kts 184°
2026-04-21 20:20 22.27291 39.24433 12569 ft 374 kts 184°
2026-04-21 20:20 22.24703 39.24454 11961 ft 370 kts 184°
2026-04-21 20:20 22.22146 39.24458 11375 ft 366 kts 184°
2026-04-21 20:21 22.19616 39.24443 10799 ft 362 kts 184°
2026-04-21 20:21 22.17116 39.24417 10325 ft 356 kts 184°
2026-04-21 20:21 22.14694 39.24384 10206 ft 339 kts 184°
2026-04-21 20:21 22.12386 39.24355 10085 ft 324 kts 184°
2026-04-21 20:22 22.10190 39.24332 9968 ft 309 kts 184°
2026-04-21 20:22 22.06084 39.24302 9696 ft 284 kts 184°
2026-04-21 20:22 22.04127 39.24286 9348 ft 279 kts 184°
2026-04-21 20:23 22.02198 39.24266 9027 ft 275 kts 184°
2026-04-21 20:23 22.00281 39.24241 8987 ft 276 kts 184°
2026-04-21 20:23 21.98357 39.24215 8991 ft 277 kts 184°
2026-04-21 20:23 21.96406 39.24187 8993 ft 277 kts 184°
2026-04-21 20:24 21.94478 39.24161 8997 ft 277 kts 184°
2026-04-21 20:24 21.92548 39.24134 8986 ft 278 kts 184°
2026-04-21 20:24 21.90625 39.24110 8675 ft 275 kts 184°
2026-04-21 20:24 21.88714 39.24080 8257 ft 274 kts 184°
2026-04-21 20:25 21.86818 39.24041 7855 ft 271 kts 184°
2026-04-21 20:25 21.84943 39.23988 7488 ft 268 kts 184°
2026-04-21 20:25 21.83086 39.23924 7121 ft 265 kts 184°
2026-04-21 20:25 21.81254 39.23854 6984 ft 263 kts 184°
2026-04-21 20:26 21.79417 39.23824 7005 ft 265 kts 176°
2026-04-21 20:26 21.77597 39.24205 7009 ft 267 kts 170°
2026-04-21 20:26 21.75781 39.24640 7008 ft 267 kts 170°
2026-04-21 20:26 21.73968 39.25077 7009 ft 267 kts 170°
2026-04-21 20:27 21.72165 39.25553 6992 ft 269 kts 164°
2026-04-21 20:27 21.70390 39.26243 6614 ft 271 kts 162°
2026-04-21 20:27 21.68634 39.26939 6237 ft 267 kts 162°
2026-04-21 20:27 21.66897 39.27629 5835 ft 265 kts 162°
2026-04-21 20:28 21.65182 39.28309 5470 ft 262 kts 161°
2026-04-21 20:28 21.63468 39.28988 5109 ft 263 kts 161°
2026-04-21 20:28 21.61753 39.29668 4746 ft 263 kts 161°
2026-04-21 20:28 21.60043 39.30341 4374 ft 261 kts 162°
2026-04-21 20:29 21.58325 39.31014 4011 ft 264 kts 163°
2026-04-21 20:29 21.56552 39.31705 3645 ft 271 kts 162°
2026-04-21 20:29 21.54753 39.32405 3264 ft 279 kts 162°
2026-04-21 20:29 21.52921 39.33117 3006 ft 280 kts 161°
2026-04-21 20:30 21.51082 39.33838 3003 ft 281 kts 160°
2026-04-21 20:30 21.49250 39.34556 3014 ft 280 kts 161°
2026-04-21 20:30 21.47424 39.35271 3011 ft 280 kts 160°
2026-04-21 20:30 21.45596 39.35989 3010 ft 279 kts 160°
2026-04-21 20:31 21.43765 39.36708 3009 ft 280 kts 160°
2026-04-21 20:31 21.41937 39.37425 3008 ft 280 kts 160°
2026-04-21 20:31 21.40103 39.38144 3015 ft 280 kts 160°
2026-04-21 20:31 21.38279 39.38849 3002 ft 278 kts 164°
2026-04-21 20:32 21.36386 39.39022 3012 ft 274 kts 192°
2026-04-21 20:32 21.34671 39.38227 3016 ft 271 kts 221°
2026-04-21 20:32 21.33515 39.36668 3021 ft 267 kts 247°
2026-04-21 20:32 21.32884 39.34792 3013 ft 266 kts 259°
2026-04-21 20:33 21.32928 39.32923 3011 ft 255 kts 290°
2026-04-21 20:33 21.33815 39.31326 3012 ft 250 kts 317°
2026-04-21 20:33 21.35294 39.30369 3006 ft 252 kts 339°
2026-04-21 20:33 21.36952 39.29723 3007 ft 254 kts 339°
2026-04-21 20:34 21.38610 39.29080 3008 ft 253 kts 338°
2026-04-21 20:34 21.40294 39.28423 3004 ft 260 kts 339°
2026-04-21 20:34 21.41991 39.27760 2916 ft 259 kts 339°
2026-04-21 20:34 21.43679 39.27098 2611 ft 254 kts 340°
2026-04-21 20:35 21.45303 39.26460 2465 ft 242 kts 340°
2026-04-21 20:35 21.46843 39.25854 2363 ft 230 kts 340°
2026-04-21 20:35 21.48308 39.25277 2283 ft 216 kts 340°
2026-04-21 20:35 21.49673 39.24739 2169 ft 204 kts 340°
2026-04-21 20:36 21.51012 39.24212 2081 ft 202 kts 341°
2026-04-21 20:36 21.52307 39.23703 2024 ft 200 kts 341°
2026-04-21 20:36 21.53549 39.23212 1967 ft 178 kts 341°
2026-04-21 20:36 21.54655 39.22775 1905 ft 158 kts 341°
2026-04-21 20:37 21.55666 39.22378 1839 ft 153 kts 341°
2026-04-21 20:37 21.56656 39.21988 1787 ft 151 kts 342°
2026-04-21 20:37 21.57639 39.21601 1735 ft 149 kts 343°
2026-04-21 20:37 21.58607 39.21220 1650 ft 148 kts 343°
2026-04-21 20:38 21.59567 39.20842 1493 ft 146 kts 342°
2026-04-21 20:38 21.60500 39.20475 1327 ft 140 kts 342°
2026-04-21 20:38 21.61076 39.20248 1223 ft 139 kts 341°
2026-04-21 20:38 21.61977 39.19893 1044 ft 137 kts 341°
2026-04-21 20:39 21.62875 39.19539 875 ft 139 kts 341°
2026-04-21 20:39 21.63758 39.19192 712 ft 137 kts 340°
2026-04-21 20:39 21.64653 39.18840 534 ft 136 kts 341°
2026-04-21 20:39 21.65546 39.18478 311 ft 137 kts 341°
2026-04-21 20:40 21.66419 39.18137 102 ft 134 kts 341°
2026-04-21 20:40 21.67279 39.17798 36 ft 122 kts 340°
2026-04-21 20:40 21.67646 39.17655 34 ft 99 kts 340°
2026-04-21 20:41 21.68099 39.17478 29 ft 31 kts 340°
2026-04-21 20:41 21.68159 39.17455 29 ft 0 kts 340°
2026-04-21 20:41 21.68183 39.17445 28 ft 9 kts 339°
2026-04-21 20:41 21.68228 39.17424 28 ft 0 kts 335°
2026-04-21 20:42 21.68255 39.17407 28 ft 10 kts 328°
2026-04-21 20:42 21.68310 39.17353 27 ft 6 kts 311°
2026-04-21 20:42 21.68361 39.17284 26 ft 18 kts 309°
2026-04-21 20:42 21.68397 39.17233 27 ft 6 kts 307°
2026-04-21 20:43 21.68406 39.17219 27 ft 0 kts 302°
2026-04-21 20:44 21.68409 39.17214 27 ft 4 kts 302°
2026-04-21 20:44 21.68418 39.17200 27 ft 3 kts 310°
2026-04-21 20:44 21.68430 39.17147 28 ft 11 kts 226°
2026-04-21 20:44 21.68389 39.17139 28 ft 15 kts 177°
2026-04-21 20:45 21.68344 39.17149 28 ft 8 kts 165°
2026-04-21 20:45 21.68262 39.17178 29 ft 17 kts 157°
2026-04-21 20:45 21.68170 39.17216 29 ft 11 kts 161°
2026-04-21 20:45 21.68167 39.17217 29 ft 0 kts 161°
2026-04-21 20:46 21.68157 39.17221 29 ft 6 kts 161°
2026-04-21 20:46 21.68136 39.17228 30 ft 5 kts 160°
2026-04-21 20:46 21.68073 39.17252 30 ft 14 kts 160°
2026-04-21 20:46 21.67995 39.17282 30 ft 11 kts 160°
2026-04-21 20:47 21.67980 39.17288 30 ft 3 kts 160°
2026-04-21 20:47 21.67953 39.17298 30 ft 0 kts 160°
2026-04-21 20:47 21.67952 39.17298 30 ft 1 kts 159°
2026-04-21 20:47 21.67929 39.17311 31 ft 8 kts 155°
2026-04-21 20:48 21.67881 39.17330 31 ft 14 kts 160°
2026-04-21 20:48 21.67872 39.17333 31 ft 4 kts 163°
2026-04-21 20:48 21.67866 39.17335 31 ft 0 kts 163°
2026-04-21 20:48 21.67864 39.17335 31 ft 3 kts 163°
2026-04-21 20:49 21.67861 39.17336 31 ft 0 kts 163°
2026-04-21 20:49 21.67844 39.17342 31 ft 7 kts 163°
2026-04-21 20:49 21.67771 39.17371 32 ft 16 kts 159°
2026-04-21 20:49 21.67649 39.17420 32 ft 16 kts 159°
2026-04-21 20:50 21.67593 39.17440 32 ft 1 kts 172°
2026-04-21 20:50 21.67589 39.17438 32 ft 0 kts 191°
2026-04-21 20:50 21.67578 39.17432 32 ft 6 kts 216°
2026-04-21 20:50 21.67527 39.17389 30 ft 14 kts 194°
2026-04-21 20:51 21.67503 39.17392 32 ft 0 kts 166°
2026-04-21 20:51 21.67487 39.17394 32 ft 7 kts 172°
2026-04-21 20:51 21.67416 39.17417 33 ft 11 kts 161°
2026-04-21 20:51 21.67310 39.17457 33 ft 17 kts 160°
2026-04-21 20:52 21.67295 39.17462 33 ft 0 kts 160°
2026-04-21 20:52 21.67291 39.17464 33 ft 1 kts 160°
2026-04-21 20:52 21.67261 39.17476 33 ft 0 kts 160°
2026-04-21 20:52 21.67224 39.17491 33 ft 11 kts 159°
2026-04-21 20:53 21.67125 39.17529 33 ft 19 kts 160°
2026-04-21 20:53 21.67041 39.17563 33 ft 8 kts 160°
2026-04-21 20:53 21.67009 39.17575 34 ft 4 kts 163°
2026-04-21 20:53 21.66960 39.17556 33 ft 11 kts 227°
2026-04-21 20:54 21.66935 39.17498 34 ft 0 kts 246°
2026-04-21 20:54 21.66931 39.17487 34 ft 6 kts 251°
2026-04-21 20:54 21.66907 39.17418 33 ft 1 kts 247°
2026-04-21 20:54 21.66895 39.17387 32 ft 9 kts 247°
2026-04-21 20:55 21.66877 39.17336 34 ft 3 kts 253°
2026-04-21 20:55 21.66887 39.17286 32 ft 12 kts 307°
2026-04-21 20:55 21.66994 39.17270 34 ft 22 kts
2026-04-21 20:55 21.67094 39.17322 34 ft 8 kts 38°
2026-04-21 20:56 21.67147 39.17316 33 ft 13 kts 324°
2026-04-21 20:56 21.67162 39.17304 33 ft 4 kts 325°
2026-04-21 20:56 21.67178 39.17292 33 ft 4 kts 325°
2026-04-21 20:56 21.67187 39.17286 33 ft 0 kts 325°
2026-04-21 20:57 21.67189 39.17284 33 ft 1 kts 325°
2026-04-21 20:57 21.67190 39.17283 33 ft 0 kts 325°
2026-04-21 20:57 21.67189 39.17284 33 ft 0 kts 325°